カタログに戻る

IRNSS 1B

運用中ナビゲーションGEO
NORAD 39635·PAYLOAD·🇮🇳 India

打ち上げ Apr 4, 2014 から Satish Dhawan Space Centre

Loading…

TLE

最新Source: CelesTrak SupGP

元期: Sep 13, 2026, 23:59 UTC

1 39635C 14017A   26256.99979167  .00000156  00000+0  00000+0 0  2563
2 39635  28.7749 238.8766 0019953 192.4346 336.6562  1.00270836    10

AllMySatでIRNSS 1Bをリアルタイム追跡

Download on the App Store